Home > Weather > Gbarnga > Past weeks

Flag for Liberia Past Weather in Gbarnga, Liberia — Yesterday and Last 2 Weeks

Now
77 °F

Passing clouds.


Feels Like: 78 °F
Forecast: N/A
Wind: No wind

Location: Roberts Field

Current Time: Jul 27, 2016 at 11:13:25 PM

Latest Report: Jul 27, 2016 at 11:00 PM


Visibility: N/A

Pressure: 29.95 "Hg

Humidity: 94%

Dew Point: 75 °F

Location of GbarngaLocation

Past Weather in Gbarnga — Graph

°F

Gbarnga Temperature Yesterday

Maximum temperature yesterday: 82 °F (at 12:00 PM)
Minimum temperature yesterday: 73 °F (at 9:00 PM)
Average temperature yesterday: 77 °F

High & Low Weather Summary for the Past Weeks

 TemperatureHumidityPressure
High95 °F (Jul 25, 12:30 AM)100% (Jul 27, 8:30 AM)30.01 "Hg (Jul 27, 8:30 AM)
Low72 °F (Jul 13, 5:30 AM)50% (Jul 25, 12:30 AM)29.86 "Hg (Jul 15, 3:00 PM)
Average78 °F86%29.94 "Hg
* Reported Jul 12 10:00 PM — Jul 27 10:00 PM, Gbarnga, Weather by CustomWeather, © 2016

Note: Actual official high and low records may vary slightly from our data, if they occured in-between our weather recording intervals... More about our weather records

Advertising

Gbarnga Weather History for the Previous 24 Hours

Scroll right to see more
 ConditionsComfort  
Time TempWeatherWind HumidityBarometerVisibility
10:00 PM
Wed, Jul 27
77 °FPassing clouds.No wind94%29.95 "HgN/A
9:30 PM77 °FPassing clouds.No wind94%29.95 "HgN/A
9:00 PM77 °FPassing clouds.No wind94%29.92 "HgN/A
8:30 PM75 °FPassing clouds.No wind94%29.89 "HgN/A
8:00 PM75 °FPassing clouds.No wind94%29.89 "HgN/A
7:30 PM75 °FLight rain. Partly sunny.3 mph94%29.89 "Hg5 mi
7:00 PM75 °FRain. Mostly cloudy.9 mph94%29.89 "Hg3 mi
6:30 PM77 °FRain. Broken clouds.13 mph94%29.89 "Hg4 mi
6:00 PM77 °FPartly sunny.12 mph94%29.89 "HgN/A
5:30 PM77 °FPartly sunny.No wind89%29.89 "HgN/A
4:30 PM77 °FLight rain. Partly sunny.No wind89%29.89 "Hg5 mi
3:30 PM77 °FPartly sunny.No wind89%29.86 "HgN/A
3:00 PM77 °FDrizzle. Partly sunny.No wind94%29.89 "Hg6 mi
2:30 PM77 °FRain. Partly sunny.No wind94%29.89 "Hg4 mi
2:00 PM75 °FRain. Mostly cloudy.No wind94%29.89 "Hg4 mi
1:30 PM75 °FRain. Mostly cloudy.No wind94%29.92 "Hg4 mi
1:00 PM75 °FRain. Mostly cloudy.No wind94%29.95 "Hg4 mi
12:30 PM75 °FRain. Mostly cloudy.No wind94%29.95 "Hg2 mi
12:00 PM75 °FRain. Mostly cloudy.No wind94%29.95 "Hg2 mi
11:30 AM75 °FRain. Mostly cloudy.6 mph94%29.95 "Hg3 mi
11:00 AM75 °FLight rain. Partly sunny.No wind94%29.95 "Hg4 mi
10:30 AM75 °FLight rain. Partly sunny.No wind94%29.95 "Hg5 mi
10:00 AM75 °FRain. Broken clouds.No wind94%29.95 "Hg4 mi
9:30 AM75 °FRain. Mostly cloudy.No wind94%29.95 "Hg2 mi
9:00 AM73 °FRain. Mostly cloudy.No wind100%29.95 "Hg2 mi
8:30 AM73 °FThunderstorms. Mostly cloudy.No wind100%29.92 "Hg2 mi
8:00 AM73 °FThunderstorms. Broken clouds.No wind94%29.92 "Hg4 mi
7:30 AM73 °FThunderstorms. Partly cloudy.No wind94%29.92 "Hg4 mi
7:00 AM73 °FThunderstorms. Mostly cloudy.No wind94%29.92 "Hg2 mi
6:30 AM73 °FThunderstorms. Mostly cloudy.No wind94%29.92 "Hg2 mi
6:00 AM73 °FThunderstorms. Partly cloudy.No wind94%29.89 "Hg3 mi
5:30 AM73 °FThunderstorms. Passing clouds.No wind94%29.89 "Hg4 mi
5:00 AM73 °FThunderstorms. Passing clouds.No wind94%29.89 "Hg6 mi
4:30 AM73 °FThunderstorms. Passing clouds.No wind94%29.89 "Hg6 mi
4:00 AM73 °FThunderstorms. Passing clouds.No wind94%29.89 "Hg6 mi
3:30 AM73 °FThunderstorms. Passing clouds.No wind94%29.89 "Hg5 mi
3:00 AM73 °FThunderstorms. Passing clouds.6 mph94%29.89 "Hg5 mi
2:30 AM73 °FThunderstorms. Passing clouds.No wind94%29.89 "Hg5 mi
2:00 AM73 °FThunderstorms. Passing clouds.No wind94%29.92 "Hg5 mi
1:30 AM73 °FThunderstorms. Passing clouds.No wind94%29.92 "Hg5 mi
1:00 AM73 °FThunderstorms. Passing clouds.No wind94%29.92 "Hg5 mi
12:30 AM73 °FThunderstorms. Passing clouds.No wind94%29.92 "Hg5 mi
12:00 AM73 °FRain. Passing clouds.No wind94%29.92 "Hg4 mi
11:30 PM
Tue, Jul 26
73 °FRain. Passing clouds.No wind94%29.95 "Hg4 mi
11:00 PM73 °FRain. Passing clouds.No wind94%29.95 "Hg5 mi
Weather by CustomWeather, © 2016

See weather overviewHow to use our weather pages